This is the latest recevied weather packets stored in our database for station/object HB9EKO-12. If no packets are shown the sender has not sent any weather packets the latest 1 day(s).
| Time | Temp. | Humidity | Pressure | Rain* | Wind** | Luminosity | Snow |
|---|---|---|---|---|---|---|---|
| 1777969797 | 13.89° C | 87% | 1011 hPa | - | 0 m/s | - | - |
| 1777968891 | 13.89° C | 88% | 1011 hPa | - | 0 m/s | - | - |
| 1777967986 | 13.33° C | 88% | 1011 hPa | - | 0 m/s | - | - |
| 1777967081 | 13.33° C | 88% | 1011 hPa | - | 0 m/s | - | - |
| 1777966176 | 13.33° C | 88% | 1011 hPa | - | 0 m/s | - | - |
| 1777965270 | 13.33° C | 90% | 1011 hPa | - | 0 m/s | - | - |
| 1777964365 | 12.22° C | 93% | 1011 hPa | - | 0 m/s | - | - |
| 1777963460 | 12.22° C | 92% | 1011 hPa | - | 0 m/s | - | - |
| 1777962555 | 12.22° C | 93% | 1011 hPa | - | 0 m/s | - | - |
| 1777961649 | 12.22° C | 93% | 1011 hPa | - | 0 m/s | - | - |
| 1777960744 | 11.67° C | 96% | 1012 hPa | - | 0 m/s | - | - |
| 1777959839 | 11.67° C | 97% | 1011 hPa | - | 0 m/s | - | - |
| 1777958934 | 11.67° C | 98% | 1011 hPa | - | 0 m/s | - | - |
| 1777958028 | 11.11° C | 10% | - | - | 0 m/s | - | - |
| 1777957123 | 10.56° C | 10% | - | - | 0 m/s | - | - |
| 1777956218 | 10° C | 10% | - | - | 0 m/s | - | - |
| 1777955313 | 10° C | 10% | - | - | 0 m/s | - | - |
| 1777954408 | 10° C | 10% | - | - | 0 m/s | - | - |
| 1777953502 | 10° C | 10% | - | - | 0 m/s | - | - |
| 1777952597 | 10° C | 99% | 1011 hPa | - | 0 m/s | - | - |
| 1777951692 | 10° C | 99% | 1012 hPa | - | 0 m/s | - | - |
| 1777950786 | 10.56° C | 98% | 1012 hPa | - | 0 m/s | - | - |
| 1777949881 | 10.56° C | 99% | 1012 hPa | - | 0 m/s | - | - |
| 1777948976 | 10.56° C | 97% | 1012 hPa | - | 0 m/s | - | - |
| 1777948071 | 10.56° C | 96% | 1012 hPa | - | 0 m/s | - | - |
* Rain since midnight (hover to see other rain measurements)
** Current wind speed in m/s (hover to see current wind gust speed)